When you browse on this site, cookies collect data to enhance your experience and personalize the content and advertising you see.
Visit our Privacy Policy to learn more. By continuing to use the site, you agree to this use of cookies and data.
  • In Portugal
  • List of Countries
  • For 7 days
  • Water Temperature
  • Weather Map
  • Weather Widgets
  • user-avatar
    Login

    Hourly Weather Syugut

    Today, 21 August, Wednesday

    Time Temperature Precipitation Wind Pressure Humidity
    00:00 +15°C° 0 mm 1 mps 619 mmHg 62%
    01:00 +15°C° 0 mm 1 mps 619 mmHg 62%
    02:00 +15°C° 0 mm 1 mps 619 mmHg 63%
    03:00 +14°C° 0 mm 1 mps 619 mmHg 63%
    04:00 +15°C° 0 mm 1 mps 619 mmHg 61%
    05:00 +16°C° 0 mm 1 mps 619 mmHg 60%
    06:00 +16°C° 0 mm 1 mps 620 mmHg 58%
    07:00 +20°C° 0 mm 1 mps 620 mmHg 51%
    08:00 +22°C° 0 mm 1 mps 621 mmHg 44%
    09:00 +24°C° 0 mm 1 mps 622 mmHg 37%
    10:00 +25°C° 0 mm 2 mps 622 mmHg 37%
    11:00 +26°C° 0 mm 2 mps 622 mmHg 37%
    12:00 +26°C° 0 mm 2 mps 622 mmHg 36%
    13:00 +26°C° 0 mm 2 mps 622 mmHg 38%
    14:00 +26°C° 0 mm 2 mps 621 mmHg 39%
    15:00 +26°C° 0 mm 2 mps 621 mmHg 40%
    16:00 +25°C° 0 mm 2 mps 620 mmHg 45%
    17:00 +24°C° 0 mm 2 mps 620 mmHg 49%
    18:00 +22°C° 0 mm 1 mps 619 mmHg 54%
    19:00 +21°C° 0 mm 1 mps 618 mmHg 56%
    20:00 +19°C° 0 mm 1 mps 618 mmHg 58%
    21:00 +16°C° 0 mm 1 mps 617 mmHg 60%
    22:00 +16°C° 0 mm 1 mps 617 mmHg 61%
    23:00 +16°C° 0 mm 1 mps 617 mmHg 62%

    Tomorrow, 22 August, Thursday

    Time Temperature Precipitation Wind Pressure Humidity
    00:00 +15°C° 0 mm 1 mps 617 mmHg 63%
    01:00 +15°C° 0 mm 1 mps 617 mmHg 63%
    02:00 +15°C° 0 mm 1 mps 617 mmHg 64%
    03:00 +15°C° 0 mm 1 mps 616 mmHg 64%
    04:00 +15°C° 0 mm 1 mps 617 mmHg 63%
    05:00 +16°C° 0 mm 1 mps 617 mmHg 62%
    06:00 +16°C° 0 mm 1 mps 617 mmHg 61%
    07:00 +20°C° 0 mm 1 mps 618 mmHg 54%
    08:00 +22°C° 0 mm 1 mps 619 mmHg 46%
    09:00 +24°C° 0 mm 1 mps 620 mmHg 39%
    10:00 +25°C° 0 mm 2 mps 620 mmHg 38%
    11:00 +26°C° 0 mm 2 mps 620 mmHg 38%
    12:00 +27°C° 0 mm 3 mps 620 mmHg 37%
    13:00 +26°C° 0 mm 3 mps 620 mmHg 37%
    14:00 +26°C° 0 mm 3 mps 619 mmHg 37%
    15:00 +26°C° 0 mm 2 mps 619 mmHg 37%
    16:00 +25°C° 0 mm 2 mps 619 mmHg 42%
    17:00 +24°C° 0 mm 1 mps 618 mmHg 47%
    18:00 +23°C° 0 mm 1 mps 618 mmHg 52%
    19:00 +21°C° 0 mm 1 mps 617 mmHg 53%
    20:00 +19°C° 0 mm 1 mps 617 mmHg 54%
    21:00 +18°C° 0 mm 1 mps 617 mmHg 55%
    22:00 +16°C° 0 mm 1 mps 617 mmHg 57%
    23:00 +16°C° 0 mm 1 mps 617 mmHg 59%

    Day after tomorrow, 23 August, Friday

    Time Temperature Precipitation Wind Pressure Humidity
    00:00 +15°C° 0 mm 1 mps 617 mmHg 60%
    01:00 +15°C° 0 mm 1 mps 616 mmHg 60%
    02:00 +15°C° 0 mm 1 mps 616 mmHg 60%
    03:00 +15°C° 0 mm 1 mps 616 mmHg 60%
    04:00 +15°C° 0 mm 1 mps 617 mmHg 60%
    05:00 +16°C° 0 mm 1 mps 617 mmHg 59%
    06:00 +16°C° 0 mm 1 mps 617 mmHg 59%
    07:00 +19°C° 0 mm 1 mps 618 mmHg 51%
    08:00 +22°C° 0 mm 1 mps 619 mmHg 44%
    09:00 +24°C° 0 mm 2 mps 620 mmHg 36%
    10:00 +25°C° 0 mm 2 mps 620 mmHg 35%
    11:00 +26°C° 0 mm 3 mps 620 mmHg 34%
    12:00 +26°C° 0 mm 3 mps 620 mmHg 33%
    13:00 +26°C° 0 mm 3 mps 620 mmHg 33%
    14:00 +27°C° 0 mm 3 mps 620 mmHg 34%
    15:00 +27°C° 0 mm 3 mps 620 mmHg 34%
    16:00 +25°C° 0 mm 2 mps 619 mmHg 40%
    17:00 +24°C° 0 mm 1 mps 619 mmHg 45%
    18:00 +23°C° 0 mm 1 mps 618 mmHg 51%
    19:00 +21°C° 0 mm 1 mps 618 mmHg 53%
    20:00 +19°C° 0 mm 1 mps 618 mmHg 55%
    21:00 +18°C° 0 mm 1 mps 617 mmHg 56%
    22:00 +16°C° 0 mm 1 mps 617 mmHg 57%
    23:00 +16°C° 0 mm 1 mps 617 mmHg 58%

    24 August, Saturday

    Time Temperature Precipitation Wind Pressure Humidity
    00:00 +16°C° 0 mm 1 mps 617 mmHg 58%
    01:00 +16°C° 0 mm 1 mps 617 mmHg 59%
    02:00 +15°C° 0 mm 1 mps 617 mmHg 59%
    03:00 +15°C° 0 mm 1 mps 616 mmHg 60%
    04:00 +16°C° 0 mm 1 mps 617 mmHg 58%
    05:00 +16°C° 0 mm 1 mps 617 mmHg 56%
    06:00 +16°C° 0 mm 1 mps 617 mmHg 54%
    07:00 +20°C° 0 mm 1 mps 618 mmHg 47%
    08:00 +21°C° 0 mm 2 mps 619 mmHg 40%
    09:00 +24°C° 0 mm 2 mps 620 mmHg 33%
    10:00 +25°C° 0 mm 2 mps 621 mmHg 33%
    11:00 +26°C° 0 mm 3 mps 621 mmHg 33%
    12:00 +26°C° 0 mm 4 mps 621 mmHg 33%
    13:00 +26°C° 0.1 mm 3 mps 620 mmHg 34%
    14:00 +26°C° 0.1 mm 3 mps 620 mmHg 35%
    15:00 +26°C° 0.1 mm 2 mps 620 mmHg 36%
    16:00 +24°C° 0.1 mm 2 mps 620 mmHg 42%
    17:00 +23°C° 0.1 mm 1 mps 619 mmHg 48%
    18:00 +22°C° 0.1 mm 1 mps 619 mmHg 55%
    19:00 +20°C° 0 mm 1 mps 619 mmHg 57%
    20:00 +19°C° 0 mm 1 mps 619 mmHg 59%
    21:00 +16°C° 0 mm 1 mps 618 mmHg 60%
    22:00 +16°C° 0 mm 1 mps 618 mmHg 60%
    23:00 +16°C° 0 mm 1 mps 618 mmHg 60%

    25 August, Sunday

    Time Temperature Precipitation Wind Pressure Humidity
    00:00 +16°C° 0 mm 1 mps 618 mmHg 60%
    01:00 +16°C° 0.1 mm 1 mps 618 mmHg 62%
    02:00 +16°C° 0.1 mm 1 mps 618 mmHg 64%
    03:00 +16°C° 0.1 mm 2 mps 618 mmHg 66%
    04:00 +16°C° 0.1 mm 1 mps 618 mmHg 67%
    05:00 +16°C° 0.1 mm 1 mps 619 mmHg 68%
    06:00 +16°C° 0.1 mm 1 mps 619 mmHg 70%
    07:00 +19°C° 0 mm 1 mps 619 mmHg 64%
    08:00 +19°C° 0 mm 2 mps 620 mmHg 57%
    09:00 +21°C° 0 mm 2 mps 621 mmHg 51%
    10:00 +21°C° 0.3 mm 2 mps 621 mmHg 49%
    11:00 +22°C° 0.3 mm 3 mps 621 mmHg 46%
    12:00 +22°C° 0.3 mm 3 mps 621 mmHg 44%
    13:00 +24°C° 0.1 mm 3 mps 620 mmHg 42%
    14:00 +24°C° 0.1 mm 3 mps 620 mmHg 41%
    15:00 +24°C° 0.1 mm 2 mps 620 mmHg 40%
    16:00 +23°C° 0 mm 2 mps 620 mmHg 43%
    17:00 +21°C° 0 mm 2 mps 619 mmHg 47%
    18:00 +21°C° 0 mm 1 mps 619 mmHg 51%
    19:00 +19°C° 0 mm 1 mps 618 mmHg 52%
    20:00 +16°C° 0 mm 1 mps 618 mmHg 52%
    21:00 +15°C° 0 mm 1 mps 617 mmHg 53%
    22:00 +14°C° 0 mm 1 mps 617 mmHg 53%
    23:00 +14°C° 0 mm 1 mps 617 mmHg 53%

    26 August, Monday

    Time Temperature Precipitation Wind Pressure Humidity
    00:00 +14°C° 0 mm 1 mps 617 mmHg 52%
    01:00 +14°C° 0 mm 1 mps 617 mmHg 51%
    02:00 +14°C° 0 mm 1 mps 617 mmHg 50%
    03:00 +14°C° 0 mm 1 mps 617 mmHg 49%
    04:00 +14°C° 0 mm 1 mps 617 mmHg 51%
    05:00 +14°C° 0 mm 1 mps 618 mmHg 54%
    06:00 +15°C° 0 mm 1 mps 618 mmHg 56%
    07:00 +18°C° 0 mm 1 mps 619 mmHg 51%
    08:00 +20°C° 0 mm 1 mps 620 mmHg 46%
    09:00 +22°C° 0 mm 1 mps 620 mmHg 41%
    10:00 +23°C° 0.1 mm 2 mps 621 mmHg 40%
    11:00 +24°C° 0.1 mm 2 mps 621 mmHg 40%
    12:00 +24°C° 0.1 mm 2 mps 621 mmHg 40%
    13:00 +24°C° 0.3 mm 2 mps 621 mmHg 42%
    14:00 +24°C° 0.3 mm 2 mps 620 mmHg 44%
    15:00 +23°C° 0.3 mm 2 mps 620 mmHg 46%
    16:00 +22°C° 0.3 mm 1 mps 620 mmHg 53%
    17:00 +21°C° 0.3 mm 1 mps 620 mmHg 59%
    18:00 +20°C° 0.3 mm 1 mps 619 mmHg 65%
    19:00 +18°C° 0.1 mm 1 mps 620 mmHg 68%
    20:00 +16°C° 0.1 mm 1 mps 620 mmHg 70%
    21:00 +15°C° 0.1 mm 1 mps 620 mmHg 73%
    22:00 +15°C° 0 mm 1 mps 620 mmHg 72%
    23:00 +15°C° 0 mm 1 mps 620 mmHg 72%
    Show more